{"data":{"norad_id":57376,"epoch":"2026-05-25T01:58:11.985888Z","epoch_age_seconds":61160,"freshness":"FRESH","line1":"1 57376U 23099BA  26145.08208317  .00034981  00000+0  12725-2 0  9991","line2":"2 57376  43.0002 166.7428 0001489 191.0829 168.9990 15.27636165157923","mean_motion":15.27636165,"eccentricity":0.0001489,"inclination_deg":43.0002,"raan_deg":166.7428,"arg_perigee_deg":191.0829,"mean_anomaly_deg":168.999,"bstar":0.0012725,"rev_number":15792,"period_min":94.263282906765,"perigee_km":481.85931740838,"apogee_km":483.90252854584,"semimajor_km":6861.0179229771,"source":"CELESTRAK","updated_at":"2026-05-25T13:38:18.296159Z"}}